STARLINK-1915 (46750 NORAD) Tracking and Keplerian Element Data
This shows tracking and keplerian element data for the satellite.
Feedback or suggestion? Click here.
Element | Value |
Catalog | 46750 |
Name | STARLINK-1915 |
Epoch Orbit | 253 |
Epoch Day | 311.44497441 |
Epoch Year | 2020 |
RAAN | 96.5756 |
Inclination | 53.0425 |
Eccentricity | 0.0011441 |
Argument of Perigee | 329.5575 |
Mean Anonmoly | 36.9847 |
Mean Motion | 16.41727675 |
Decay Rate | 0.27626385 |
L1 | 1 46750U 20074M 20311.44497441 .27626385 12576-4 14304-2 0 9997 |
L2 | 2 46750 53.0425 96.5756 0011441 329.5575 36.9847 16.41727675 2531 |
Live tracking and technical data element details for STARLINK-1915 (NORAD 46750). STARLINK-1915 can be tracked NOW for your location showing map with azimuth and elevation plus other details from your city location.
Track the satellite on the map from your city or location and see movement details for azimuth, elevation, latitude, longitude, range, height, and movement on the map or in text.
IsCatalogInMostPopularTable: catalog: 46750, numindb: 32
Update: records affected: 1
GetName: 46750 STARLINK-1915
Hit Count: updated at: Fri, 22 Jan 2021 19:39:58 GMT